Flag for U.S.A. Weather past 2 weeks in Rapid City, South Dakota, U.S.A.

13 °F

Ice fog.

Feels Like: 1 °F
Forecast: 13 / 29 °F
Wind: 8 mph from Northwest

Location: Ellsworth Air Force Base

Current Time: Nov 28, 2015 at 10:29:28 PM

Latest Report: Nov 28, 2015 at 9:58 PM

Visibility: 4 mi

Pressure: 30.34 "Hg (26.72 "Hg at 977m altitude)

Humidity: 90%

Dew point: 10 °F

Location of Rapid CityLocation

Historic Weather in Rapid City — Graph


Rapid City temperature yesterday

Maximum temperature yesterday: 28 °F (at 1:58 PM)
Minimum temperature yesterday: 5 °F (at 12:58 AM)
Average temperature yesterday: 16 °F

Past Weeks' High & Low Weather Summary

High71 °F (Nov 15, 12:58 PM)100% (Nov 18, 9:58 PM)30.75 "Hg (Nov 18, 9:58 PM)
Low5 °F (Nov 27, 12:58 AM)10% (Nov 15, 1:58 PM)29.20 "Hg (Nov 18, 5:58 AM)
Average32 °F59%30.04 "Hg
* Reported Nov 13 8:58 PM — Nov 28 8:58 PM, Rapid City, Weather by CustomWeather, © 2015

Note: Actual official high and low records may vary slightly from our data, if they occured in-between our weather recording intervals... More about our weather records


Rapid City weather history for previous 24 hours

Time TempWeatherWind HumidityBarometerVisibility
8:58 PM
Sat, Nov 28
12 °FIce fog.7 mph85%30.36 "Hg6 mi
7:58 PM19 °FPassing clouds.7 mph92%30.35 "Hg10 mi
6:58 PM23 °FLight snow. Low clouds.3 mph86%30.35 "Hg10 mi
5:59 PM23 °FLight snow. Mostly cloudy.6 mph93%30.20 "Hg9 mi
4:58 PM23 °FLight snow. Ice fog.6 mph100%30.38 "Hg3 mi
3:58 PM25 °FLight snow. Ice fog.8 mph86%30.36 "Hg2 mi
2:58 PM25 °FMostly cloudy.9 mph85%30.35 "Hg10 mi
2:03 PM25 °FLight snow. Ice fog.14 mph93%30.20 "Hg4 mi
1:03 PM25 °FCloudy.12 mph86%30.21 "Hg7 mi
12:03 PM25 °FLight snow. Ice fog.13 mph86%30.24 "Hg2 mi
11:58 AM24 °FLight snow. Ice fog.10 mph88%30.40 "Hg4 mi
10:58 AM22 °FMostly cloudy.3 mph87%30.44 "Hg10 mi
10:03 AM21 °FLight snow. Ice fog.7 mph80%30.29 "Hg1 mi
8:58 AM21 °FOvercast.2 mph70%30.47 "Hg10 mi
7:58 AM18 °FOvercast.No wind77%30.48 "Hg10 mi
6:58 AM17 °FOvercast.2 mph82%30.47 "Hg10 mi
5:58 AM17 °FOvercast.No wind68%30.47 "Hg10 mi
4:58 AM9 °FClear.5 mph77%30.47 "Hg10 mi
3:58 AM13 °FClear.3 mph70%30.46 "Hg10 mi
2:58 AM11 °FClear.3 mph77%30.48 "Hg10 mi
1:58 AM12 °FClear.3 mph76%30.47 "Hg10 mi
12:58 AM11 °FClear.5 mph75%30.48 "Hg10 mi
10:58 PM
Fri, Nov 27
15 °FClear.5 mph69%30.50 "Hg10 mi
Weather by CustomWeather, © 2015

See weather overviewHow to use our weather pages